This is the latest recevied weather packets stored in our database for station/object W9LRT-WX. If no packets are shown the sender has not sent any weather packets the latest 10 day(s).
| Time | Temp. | Humidity | Pressure | Rain* | Wind** | Luminosity | Snow |
|---|---|---|---|---|---|---|---|
| 1777441605 | 12.22° C | 89% | 1011.3 hPa | 0 mm | - | 0 W/m² | - |
| 1777440705 | 12.22° C | 89% | 1012.2 hPa | 0 mm | - | 0 W/m² | - |
| 1777439803 | 12.22° C | 89% | 1012.1 hPa | 0 mm | - | 0 W/m² | - |
| 1777438902 | 12.22° C | 89% | 1012 hPa | 0 mm | - | 0 W/m² | - |
| 1777438003 | 11.67° C | 88% | 1011.8 hPa | 0 mm | - | 0 W/m² | - |
| 1777437106 | 11.67° C | 87% | 1011.8 hPa | 0 mm | - | 0 W/m² | - |
| 1777436204 | 12.22° C | 86% | 1011.6 hPa | 0 mm | - | 0 W/m² | - |
| 1777435301 | 12.78° C | 85% | 1011.8 hPa | 0 mm | - | 0 W/m² | - |
| 1777434402 | 12.78° C | 84% | 1011.4 hPa | 0 mm | - | 0 W/m² | - |
| 1777433502 | 13.33° C | 83% | 1011.6 hPa | 0 mm | - | 0 W/m² | - |
| 1777432601 | 13.33° C | 82% | 1011.8 hPa | 0 mm | - | 0 W/m² | - |
| 1777431693 | 13.89° C | 81% | 1012 hPa | 0 mm | - | 0 W/m² | - |
| 1777430793 | 13.89° C | 80% | 1012 hPa | 0 mm | - | 0 W/m² | - |
| 1777429895 | 14.44° C | 80% | 1012.4 hPa | 0 mm | - | 0 W/m² | - |
| 1777428993 | 14.44° C | 79% | 1012.4 hPa | 0 mm | - | 0 W/m² | - |
| 1777428094 | 15° C | 74% | 1012.4 hPa | 0 mm | - | 0 W/m² | - |
| 1777427195 | 15° C | 75% | 1012.3 hPa | 0 mm | - | 0 W/m² | - |
| 1777426292 | 15° C | 76% | 1012.2 hPa | 0 mm | - | 0 W/m² | - |
| 1777425391 | 15° C | 74% | 1012.2 hPa | 0 mm | - | 0 W/m² | - |
| 1777424489 | 15° C | 74% | 1012.1 hPa | 0 mm | - | 0 W/m² | - |
| 1777423589 | 15.56° C | 74% | 1011.4 hPa | 0 mm | - | 0 W/m² | - |
| 1777422690 | 15.56° C | 74% | 1011.3 hPa | 0 mm | - | 0 W/m² | - |
| 1777421790 | 15.56° C | 76% | 1011.4 hPa | 0 mm | - | 7 W/m² | - |
| 1777420892 | 15.56° C | 76% | 1011 hPa | 0 mm | - | 46 W/m² | - |
| 1777419990 | 16.11° C | 73% | 1011 hPa | 0 mm | - | 42 W/m² | - |
* Rain latest hour (hover to see other rain measurements)
** Current wind speed in m/s (hover to see current wind gust speed)